cliquez pour ajouter le site Runraid à vos favoris  English version (google)  Retour à l'accueil Ecrire à l'auteur du site Runraid : Michel Jourdan



Les prochaines courses


Les derniers résultats

cliquez pour visualiser la page complète relatant la chronologie des éruptions du Piton de la Fournaise
éruptions Piton de la Fournaise


Ile de La Réunion

 Diagonale des Fous 

Ecrire au créateur du site : Michel Jourdan
Contact


2013-03-24 - Trail du Ventoux - 44 km

Pour consulter le palmarès d'un coureur, un clic sur son nom !

Vous avez des remarques, corrections, ... sur ces résultats , un clic sur --> pour me transmettre toute information concernant les classements


Trail du Ventoux - 44 km - 2013 : classement des 512 finishers
Place Nom Temps Cat. Club Sexe Clt/cat.
Place Nom Temps Cat. Club Sexe Clt/cat.
1 BRINGER Patrick 03:55:20 SEM - M 19
2 LANNE Michel 03:56:03 SEM - M 9
3 PETITJEAN CLEMENT 03:56:26 SEM - M 1076
4 DURAND Maxime 03:57:27 SEM - M 4
5 LORBLANCHET Thomas 04:01:17 SEM - M 50
6 MARTIN Nicolas 04:06:53 SEM - M 5
7 BARONIAN Thibaut 04:13:05 SEM - M 24
8 BROCHOT Bertrand 04:13:43 SEM - M 31
9 CHORIER Julien 04:14:30 SEM - M 23
10 CURRIEN Yann 04:14:49 SEM - M 20
11 PERRIGNON Arnaud 04:15:00 SEM - M 639
12 BRYANT Jason 04:17:15 V1M - M 35
13 BEAUXIS Guillaume 04:17:37 SEM - M 27
14 PERETTI Guillaume 04:18:02 SEM - M 17
15 TREBAUX David 04:18:17 V1M - M 468
16 BROCHARD Laurent 04:20:39 V1M - M 1279
17 REYNAUD Gael 04:24:37 SEM - M 296
18 NABIAS Fabien 04:24:49 SEM - M 25
19 BOEBION Christophe 04:24:53 V1M - M 709
20 SHERPA Sange 04:27:13 SEM - M 937
21 GAUDION Thomas 04:27:18 SEM - M 30
22 DEVILLAZ Sacha 04:28:03 SEM - M 26
23 JORRO Julien 04:28:06 SEM - M 6
24 DEWALLE Christel 04:34:03 SEF - F 1ere F 49
25 LE SAUX Christophe 04:34:53 V1M - M 42
26 CHARLES MANGEON Benoit 04:36:48 SEM - M 167
27 PARIS Thomas 04:36:53 SEM - M 543
28 MARCEL Remy 04:38:05 SEM - M 54
29 HOARAU Jean Hugo 04:39:11 SEM - M 108
30 GELY Daniel 04:40:57 V1M - M 859
31 LAUGIER Eric 04:41:24 V1M - M 1192
32 DAUM Alexandre 04:41:36 SEM - M 44
33 JEU Sebastien 04:41:38 SEM - M 308
34 GIGUET Pascal 04:41:43 V1M - M 28
35 MAYER Alexandre 04:41:47 SEM - M 669
36 LARGEOIS Fabrice 04:43:16 SEM - M 589
37 MEIER Christophe 04:46:38 V1M - M 439
38 CALLIER Frederic 04:49:10 SEM - M 416
39 CHABERT Guillaume 04:50:48 SEM - M 948
40 LAVIGNE Baptiste 04:55:58 SEM - M 830
41 FONT Xavier 04:56:13 SEM - M 570
42 VIGNAIS Sebastien 04:57:14 SEM - M 48
43 BEYNEL Denis 04:57:52 SEM - M 558
44 FAYARD Benoit 04:58:08 SEM - M 215
45 LAMOUROUX Herve 04:59:02 V1M - M 1001
46 SIRAUDIN Mathieu 05:01:55 SEM - M 208
47 MANSIAT Teddy 05:02:36 SEM - M 405
48 AST Romain 05:02:41 SEM - M 435
49 GUIMET Alain 05:04:41 V1M - M 211
50 BIZIEN Mickael 05:05:32 SEM - M 375
51 CHAPEAU David 05:06:02 SEM - M 359
52 PADRUN David 05:06:44 SEM - M 515
53 NURIS Vincent 05:06:53 SEM - M 1112
54 POURSAC Clement 05:07:30 SEM - M 812
55 BORGEAUD Frederic 05:08:28 V1M - M 541
56 COMBARIEU Maud 05:08:44 SEF - F 2eme F 8
57 MARTIN Sandra 05:10:08 V1F - F 3eme F 3
58 MARMET Patrice 05:10:57 V1M - M 34
59 CALGAGNO Patrick 05:13:41 V1M - M 591
60 VANCASSEL Olivier 05:14:21 SEM - M 826
61 RAIBAUT Vincent 05:15:29 V1M - M 559
62 TESCARI Thierry 05:16:14 V1M - M 1087
63 LOUIS Yves 05:18:52 V2M - M 838
64 BLANC Philippe 05:19:18 V1M - M 794
65 BOUHIER Laurent 05:20:04 V1M - M 595
66 ROSEAU Teddy 05:21:47 SEM - M 428
67 BENOIST Joris 05:22:05 SEM - M 771
68 MAUCUIT Christophe 05:22:48 V1M - M 943
69 PAILLEUX Bertrand 05:22:52 SEM - M 1118
70 WADDIL J Jacques 05:23:11 SEM - M 1251
71 DIEZ Manuel 05:24:20 SEM - M 38
72 MATHOT J Francois 05:24:50 V2M - M 1075
73 GROSSO Florian 05:25:50 ESM - M 860
74 JOUHANNET Richard 05:25:50 SEM - M 1131
75 LACHMAN Michel 05:25:59 SEM - M 1246
76 PRIM Jerome 05:26:18 V1M - M 850
77 GIRARD Gregory 05:27:25 SEM - M 316
78 PICCOLET Josiane 05:27:29 V2F - F 4eme feminine 16
79 GOFFARD Philippe 05:27:42 V2M - M 931
80 BREYTON Bruno 05:28:31 V1M - M 394
81 VEILLET Sebastien 05:28:38 SEM - M 436
82 GIRARD Ludovic 05:29:12 V1M - M 501
83 COLAS Damien 05:29:12 SEM - M 544
84 LEGRAND Moise 05:29:54 SEM - M 332
85 BRISSON Olivier 05:30:00 V1M - M 213
86 EDMOND Xavier 05:30:06 V1M - M 576
87 ROLLAND Arnaud 05:31:08 SEM - M 891
88 DEFOSSE Franck 05:32:09 SEM - M 1237
89 BEGOC Aurelien 05:32:45 SEM - F 90
90 ARNAUD Fabrice 05:33:20 SEM - M 15
91 TARCY Olivier 05:33:40 V1M - M 444
92 LAURENS Gilles 05:33:51 V2M - M 503
93 AMICE Sebastien 05:34:47 SEM - M 868
94 BOURMAUD Sebastien 05:35:53 SEM - M 398
95 FARJOT Franck 05:36:08 V1M - M 758
96 MAUPOME Philippe 05:36:17 V1M - M 656
97 JAOUEN Olivier 05:36:39 V1M - M 620
98 GRANGE Gaetan 05:36:39 SEM - M 273
99 MAIRE Daniel 05:36:52 V2M - M 738
100 COYNE Hubert 05:41:00 V2M - M 191
101 MICHELON Fabrice 05:41:18 V1M - M 426
102 GEAY Rene 05:41:54 V1M - M 60
103 MEUGNIER Christophe 05:42:01 SEM - M 438
104 BRUN Florent 05:42:09 V1M - M 682
105 CHAMU Benoit 05:42:35 V1M - M 513
106 DELHOM Janathan 05:42:47 SEM - M 657
107 SOURDON Guillaume 05:43:09 SEM - M 278
108 RITONDALE Sebastie n 05:43:30 V1M - M 828
109 CHAPELLE Mathieu 05:44:29 SEM - M 341
110 GRANDCOING Laurent 05:44:44 V1M - M 566
111 CHEVAL David 05:45:15 SEM - M 242
112 TREVISAN Celia 05:45:28 SEF - F 5eme feminine 1230
113 BAUDY Thierry 05:45:36 V1M - M 480
114 COCHETEL Raphael 05:45:39 V1M - M 487
115 ROMAN Eric 05:45:44 V1M - M 736
116 CURTIL Sylvai 05:45:52 SEM - M 93
117 BIRON Ludovic 05:45:59 V1M - M 421
118 ROMERO Fabien 05:46:04 SEM - M 86
119 RAMOND Vincent 05:46:06 SEM - M 836
120 COSSE Guillaume 05:46:12 SEM - M 382
121 MARC Cedric 05:46:25 SEM - M 772
122 EGLIN Pascal 05:46:46 V1M - M 683
123 JURRIAANS Saskia 05:46:58 SEF - F 6eme feminine 1024
124 SAILLANT Christophe 05:47:02 V1M - M 1005
125 TREFCON Julien 05:47:22 SEM - M 528
126 CANTENOT Gael 05:47:25 SEM - M 982
127 MERCIER Patrick 05:47:53 V1M - M 538
128 MARTY Anthony 05:47:58 SEM - M 536
129 MAUREL Sylvain 05:47:58 SEM - M 693
130 BINETRUY Fabien 05:48:07 SEM - M 246
131 MASSOT Armel 05:48:41 V1M - M 74
132 BERNARD Frederic 05:50:23 V1M - M 178
133 VANDERWOORT Kevin 05:50:32 SEM - M 1229
134 VANDERMEULEN Severine 05:50:37 SEF - F 1058
135 BROYER Stephane 05:51:08 SEM - M 947
136 DUBREUIL Sylvain 05:51:40 SEM - M 195
137 SANSON Karine 05:52:45 V1F - F 32
138 TAULELLE Patrice 05:53:30 SEM - M 697
139 CHEVALIER Lionnel 05:54:03 SEM - M 775
140 PSICA Karl 05:54:07 SEM - M 1012
141 BEL FRANQUESA Laura 05:54:10 SEF - F 870
142 FALCONNIER Jeremy 05:54:25 SEM - M 180
143 MAITRE Thierry 05:54:28 V2M - M 760
144 BOLE Romain 05:54:46 SEM - M 748
145 NOE Laurent 05:54:46 V1M - M 857
146 KADJI Patrice 05:55:04 V1M - M 478
147 LACOSTE Thomas 05:55:10 SEM - M 376
148 MORINO ROS Sylvain 05:56:08 V2M - M 598
149 PIERRE Vincent 05:56:08 SEM - M 767
150 RIBOUTON Olivier 05:56:19 V1M - M 752
151 SELERIER Christophe 05:56:44 SEM - M 95
152 PETIT DIDIER Michael 05:57:33 SEM - M 1250
153 SOUQUET Vincent 05:57:59 SEM - M 764
154 BERIOT Denis 05:58:11 V2M - M 728
155 BERGER Olivier 05:58:22 V1M - M 824
156 REBOUL Vincent 05:58:44 V1M - M 1011
157 COYNE Fanny 05:58:48 SEF - F 196
158 LE BITOUX David 05:58:53 V1M - M 610
159 CHAMPEVAL Francois 05:59:12 SEM - M 710
160 RENOUX Philippe 05:59:33 SEM - M 418
161 AYME Olivier 06:00:07 V1M - M 582
162 GARCIA Wilfrid 06:00:41 SEM - M 1113
163 REVILLET Jacky 06:01:35 V1M - M 358
164 BEZ Cyril 06:01:39 SEM - M 342
165 TOURRES Stephane 06:01:47 SEM - M 498
166 DUSSARGUES SEBASTIEN 06:01:47 SEM - M 856
167 GIL Frederic 06:02:34 V1M - M 479
168 CORBA Sebastien 06:02:42 SEM - M 313
169 CHARLET Thomas 06:02:52 SEM - M 979
170 DECREAU Frederic 06:03:17 SEM - M 556
171 GONCALVES Paul 06:03:33 SEM - M 1120
172 FEUTRY Nathalie 06:03:56 V1F - F 1032
173 PERES Loic 06:04:01 SEM - M 866
174 PORTEFAIX Thomas 06:04:04 SEM - M 763
175 ALBERT Pascal 06:04:07 V2M - M 951
176 VIDALIES Pierre 06:04:12 SEM - M 649
177 DEBRAY Quentin 06:04:36 ESM - M 189
178 MAISONHAUTE Vincent 06:04:46 SEM - M 1184
179 THOREL Pascal 06:05:18 SEM - M 499
180 CREISSELS Didier 06:05:22 V1M - M 865
181 DHERVILLY Patrick 06:05:43 V1M - M 227
182 BONINI Frederic 06:05:47 V1M - M 1252
183 GROSSE AURELIE 06:06:10 SEF - F 1240
184 COUSTON Vincent 06:06:29 V2M - M 305
185 MAUPAS Guillaume 06:06:36 SEM - M 653
186 RAUX Emmanuel 06:06:43 SEM - M 959
187 MANIVOZ Franck 06:07:09 V1M - M 565
188 ANTONIETTI Guillaume 06:07:20 V1M - M 401
189 COINDREAU Marc Antoine 06:07:58 ESM - M 408
190 INGARGIOLA Olivier 06:08:21 V1M - M 756
191 DUCLOS Christophe 06:08:26 V1M - M 997
192 HUARD Jerome 06:08:33 SEM - M 769
193 BORDUJENKO Stephane 06:08:37 V1M - M 442
194 BELAUSTEGUY Philippe 06:09:10 V1M - M 149
195 RODIER Andre 06:10:59 V2M - M 283
196 MAISONNEUVE Maxime 06:11:45 SEM - M 523
197 GEHU Cyril 06:12:17 SEM - M 630
198 LEPINAY Franck 06:12:56 V1M - M 143
199 SCHATAN Benjamin 06:13:04 SEM - M 550
200 DUFOUR Maxime 06:13:09 SEM - M 777
201 NOVIKAU Youryi 06:14:04 SEM - M 1265
202 CAUDOUX Jeremy 06:14:12 SEM - M 432
203 RECCO EStelle 06:14:25 V1F - F 874
204 JOURDAN Laurent 06:14:39 V1M - M 904
205 WEALER Bob 06:15:33 SEM - M 807
206 BOUVIER JEAN LOUIS 06:16:11 V2M - M 1228
207 MICHAUD Olivier 06:16:15 V1M - M 1195
208 CAPPEZ Christine 06:16:18 V1F - F 965
209 COSTA Pierre Paul 06:16:21 SEM - M 972
210 GELMINI Laurent 06:16:23 SEM - M 886
211 GUICHE Michel 06:16:28 V2M - M 969
212 CAZAU Gerard 06:16:34 V2M - M 508
213 DESGREES DU LOU Jean Baptiste 06:16:41 SEM - M 1093
214 CANU Julien 06:17:09 SEM - M 993
215 CELERIER Christophe 06:17:13 V1M - M 1182
216 MARTINEZ Pascal 06:17:18 V1M - M 628
217 CARANTA Bruno 06:17:23 V1M - M 346
218 MANDEL Alexandre 06:17:28 SEM - M 780
219 MANDEL Etienne 06:17:34 SEM - M 782
220 BARRAILLER Stefano 06:17:37 V1M - M 546
221 TOUCHARD Yannick 06:18:55 SEM - M 419
222 VENNEUGUES Alban 06:19:04 SEM - M 820
223 MULLER Yrick 06:19:12 SEM - M 863
224 MALLET Emmanuelle 06:19:28 V1F - F 634
225 RAMEL Christophe 06:19:44 V1M - M 491
226 BARTOLINI Olivier 06:19:58 SEM - M 214
227 MOULIN Joel 06:20:27 V1M - M 641
228 FEUTRY Philippe 06:21:17 V1M - M 193
229 OLLIER Eric 06:21:45 SEM - M 999
230 COCHEME Sylvain 06:21:45 SEM - M 349
231 CERVERA Patrice 06:21:58 V1M - M 460
232 LANGEARD Cyril 06:22:13 V1M - M 900
233 PICARD Julien 06:22:25 SEM - M 443
234 PETIT Damien 06:22:37 SEM - M 1264
235 GUIGNARD William 06:23:32 V2M - M 159
236 LACOMBE Matthieu 06:24:14 SEM - M 530
237 BOSSIN Sebastien 06:24:50 SEM - M 236
238 G 06:25:36 SEM - M 906
239 ROSSIGNOL Jacques 06:26:16 SEM - M 862
240 BAUDY J Christophe 06:26:37 V1M - M 484
241 PRETOT Gregory 06:27:04 V1M - M 241
242 TAVANO Eric 06:27:15 SEM - M 914
243 SABRAN BERTIN Delphine 06:27:20 V1F - F 452
244 REYNARD Denis 06:27:27 V1M - M 983
245 ROUSSET Melanie 06:27:31 SEF - F 18
246 RISI Florian 06:28:02 SEM - M 386
247 VALOT Nidal 06:28:20 SEM - M 781
248 DAUDET Laurent 06:28:24 SEM - M 612
249 BALMONT Alexandre 06:28:27 SEM - M 389
250 GONZALEZ Fabrice 06:28:51 V1M - M 799
251 RABAHI Farrid 06:30:03 V1M - M 493
252 SAINT ETIENNE Sandrine 06:30:29 V1F - F 1090
253 PONCHON Adrien 06:30:45 SEM - M 735
254 CAMAZ Geoffrey 06:30:55 SEM - M 290
255 RICHARD francois 06:31:00 V1M - M 355
256 JOURNAUX Francois 06:31:41 SEM - M 1178
257 BENEDETTI Xavier 06:31:41 SEM - M 1176
258 SANS Marc 06:31:56 V2M - M 529
259 KAUFFMANN Matthieu 06:32:25 V1M - M 592
260 PERAY Sebastien 06:32:59 V1M - M 370
261 GERVAIS Daniel 06:32:59 V2M - M 673
262 SUBERBIE Marc 06:33:25 SEM - M 1066
263 LUSSAC David 06:33:32 V1M - M 706
264 MINIGGIO Nicolas 06:33:34 SEM - M 463
265 MAS Philippe 06:34:03 V1M - M 744
266 PROSDOCIMI Eric 06:34:45 V2M - M 581
267 VIEL Sebastien 06:35:10 SEM - M 1222
268 GUFFROY Christian 06:35:19 SEM - M 337
269 LEGER Martine 06:35:30 V1F - F 711
270 PLOUVIN Jerome 06:35:46 V1M - M 960
271 GENTILHOMME Alvine 06:35:46 SEF - F 963
272 BESSI Patrice 06:36:55 V2M - M 403
273 VANDEPUTTE Pascal 06:36:55 V1M - M 1006
274 OUSSET Geoffroy 06:38:27 SEM - M 120
275 TUTOIS Gregory 06:38:27 SEM - M 1018
276 PIA J Francois 06:38:36 SEM - M 350
277 RENARD Francois 06:39:31 SEM - M 786
278 CAYROL Jerome 06:39:50 V1M - M 961
279 MANIeRE Christophe 06:39:57 V1M - M 302
280 BARIS Sandrine 06:40:18 SEF - F 204
281 BOUDRY Stephane 06:40:28 V1M - M 181
282 GLUZA Aurelien 06:40:32 SEM - F 119
283 GUERRERO Quentin 06:40:52 SEM - M 527
284 CHARVET Didier 06:41:00 V1M - M 733
285 TOQUEBEUF Christophe 06:41:00 V1M - M 621
286 TRIBOULLOY eric 06:41:16 V1M - M 1280
287 CAMPTON Pierre 06:41:43 SEM - M 1188
288 VIDALINC Lilian 06:41:54 SEM - M 834
289 QUILLIOT Olivier 06:42:08 V1M - M 300
290 LEVEUGLE Lionel 06:42:19 V1M - M 1226
291 FONROUGE Sebastien 06:42:52 SEM - M 749
292 KOSZIK Fabrice 06:43:05 SEM - M 699
293 TEJEDOR David 06:43:10 SEM - M 445
294 GRILLOT Nicolas 06:43:23 SEM - M 740
295 DELATTRE Davy 06:43:23 SEM - M 739
296 CHARLES Nicolas 06:43:44 V1M - M 1128
297 BOISTE Sebastien 06:43:56 SEM - M 430
298 ROUSILLIAT Patrice 06:44:21 SEM - M 701
299 BARON Gregory Julien 06:44:32 SEM - M 1278
300 LONCA Christophe 06:44:58 V1M - M 1072
301 GOUBEAU Sylvie 06:45:06 V1F - F 453
302 GIRARD Christel 06:45:16 SEF - F 317
303 AUDOUARD Vincent 06:45:20 V1M - M 57
304 CHARLES Nicolas 06:45:23 SEM - M 662
305 BOILLON Damien 06:45:25 SEM - M 520
306 D'ANDREA Frederic 06:45:27 V1M - M 172
307 FARGUES Matthieu 06:45:58 SEM - M 964
308 GENOVESI J Francois 06:45:58 V1M - M 415
309 SANTINI Antoine6jean 06:45:58 V1M - M 893
310 VALLET Fabrice 06:46:10 SEM - M 648
311 REMOLA Eric 06:46:18 SEM - M 987
312 DANJOU Olivier 06:46:18 V1M - M 1157
313 DEFIX Dominique 06:48:38 V2M - M 1122
314 MARSERO Christophe 06:49:23 V1M - M 123
315 BRENAC Christian 06:49:52 V1M - M 352
316 MUSSLIN Cedric 06:50:15 SEM - M 99
317 BURDET Thierry 06:50:15 V1M - M 381
318 DILLIES David 06:50:33 V1M - M 910
319 MAURY Laurent 06:50:54 SEM - M 64
320 HIDALGO Patrick 06:50:54 V1M - M 65
321 FERRARI Christophe 06:51:09 SEM - M 705
322 DE MARCO Matthieu 06:51:09 SEM - M 1089
323 LAPUENTE Cesar 06:51:21 V1M - M 654
324 THIEBAUT Fredric 06:51:38 SEM - M 1262
325 TADIOTTO David 06:51:54 V1M - M 128
326 FERRAND Nono 06:51:59 V1M - M 1057
327 MEHAT Stefan 06:52:08 V1M - M 197
328 NEBAS Emmanuel 06:52:12 V1M - M 804
329 JAVEL LE Sylvie 06:52:19 SEF - F 473
330 LEPAUL Pierre 06:53:05 V2M - M 757
331 MIGEON J Yves 06:53:05 V1M - M 747
332 BOIN Christophe 06:53:32 V1M - M 871
333 DEBRAY Jean Pierre 06:55:24 V1M - M 190
334 LAGRAULET Mathieu 06:55:24 SEM - M 975
335 BLERVAQUE Kevin 06:55:31 ESM - M 299
336 CORSIN Philippe 06:55:50 SEM - M 264
337 SCHEVENEMENT Gerard 06:56:15 V2M - M 101
338 BUCHER Laurent 06:57:42 V1M - M 851
339 MISTER Guillaume 06:57:58 SEM - M 604
340 DAUTHERIBES Jocelyn 06:58:20 V1M - M 919
341 BENBAHOUCHE Abdelkrim 06:58:20 V1M - M 920
342 BAILLEUL Frederic 06:58:39 V1M - M 70
343 GODARD frederic 06:58:47 SEM - M 482
344 LIMONE Philippe 06:59:26 V1M - M 1173
345 OBERLIN Mathieu 07:00:08 SEM - M 1009
346 BOMPAYS Patrick 07:00:08 V1M - M 571
347 CHILLET Patrick 07:01:10 V2M - M 852
348 MINGUY Jean Luc 07:01:15 V1M - M 114
349 PEZELIER Baptiste 07:02:06 ESM - M 946
350 CHAMBRIS Henri 07:02:12 V1M - M 1077
351 GIRAUD J Yves 07:02:17 V1M - M 429
352 CHARLET Emilie 07:02:19 SEF - F 980
353 CATCEL Philippe 07:03:12 V1M - M 458
354 RETALI J Paul 07:03:38 V1M - M 1202
355 NIEL Didier 07:05:28 SEM - M 328
356 LORENZI David 07:05:39 SEM - M 252
357 CHARTON Julien 07:05:42 SEM - M 967
358 HOARAU Charles 07:05:57 V2M - M 279
359 GALLO Stephane 07:06:36 SEM - M 608
360 PIEKELKO Pierre 07:06:57 V2M - M 466
361 LATOUR Laurent 07:07:14 V1M - M 76
362 DEMOULIN Jose 07:07:21 V3M - M 1000
363 SCAILLET Vincent 07:07:25 V1M - M 1110
364 DESIDERI Jonathan 07:07:30 SEM - M 521
365 LE GUELL Olivier 07:07:41 V1M - M 175
366 GRIMALDI J Michel 07:07:48 V1M - M 563
367 MOREL Patrick 07:07:52 V1M - M 725
368 TASSAN Rene 07:08:36 V1M - M 640
369 PAIN Yannick 07:09:05 V1M - M 597
370 CROUZET Philippe 07:09:19 V2M - M 933
371 BRAYCZEWSKI Vladimir 07:09:32 V2M - M 629
372 MORIONES Manuel 07:09:39 V2M - M 1143
373 VALENCON Richard 07:09:49 V2M - M 1069
374 DARNAND Laurent 07:09:52 V1M - M 1127
375 CHOUPOT Herve 07:10:42 V1M - M 338
376 BERGER Benjamin 07:10:48 SEM - M 1102
377 FORGEAT Matthieu 07:10:57 SEM - M 1095
378 BENTZ Cyril 07:11:02 SEM - M 998
379 PERRET Nicolas 07:11:13 V1M - M 1064
380 BONINI Francoise 07:11:17 V1F - F 1253
381 LOUEDEC Anthony 07:11:24 SEM - M 320
382 CAMUS Olivier 07:11:24 V1M - M 322
383 DJERBY Tommy 07:11:24 V1M - M 325
384 BERTIN Ludovic 07:12:10 V1M - M 798
385 ROUSSEAU J Michel 07:12:31 V1M - M 646
386 GUILHOT Florian 07:13:10 SEM - M 275
387 ROUVIERE Stephan 07:13:13 V1M - M 1140
388 SEGHETTI Fabien 07:14:42 SEM - M 174
389 BERNE Nicolas 07:15:02 SEM - M 788
390 BARON Ange 07:15:36 V2M - M 950
391 CARPENTIER Denis 07:15:40 V2M - M 1014
392 LABAUME Christophe 07:17:14 SEM - M 692
393 FOULQUIER Pascal 07:17:22 SEM - M 1216
394 JAVELLO J Philippe 07:17:28 V1M - M 289
395 SEBASTIEN Guy 07:17:34 V1M - M 1169
396 TERRANOVA Marc 07:18:36 V1M - M 465
397 CANESTRARI GILLES 07:18:41 V2M - M 1159
398 ADNET Claude 07:19:06 V2M - M 169
399 GASPARD Georges 07:19:18 V1M - M 1164
400 TOUSSAINT Amaury 07:20:09 SEM - M 994
401 MILLE Stephane 07:20:13 V1M - M 525
402 PECHEREAU Nicolas 07:20:16 V1M - M 619
403 OLIVIER Clement 07:20:19 SEM - M 552
404 SIDER Fabrice 07:20:24 SEM - M 343
405 MANCON J Luc 07:21:46 V2M - M 490
406 JOUANOLOU Isabelle 07:22:10 V1F - F 688
407 DELOMENIE Serge 07:23:23 V2M - M 158
408 VALETTE Bernard 07:24:31 SEM - M 504
409 PERROT Thomas 07:25:53 SEM - M 519
410 COTTET Colette 07:26:14 V2F - F 949
411 VOLLE Jerome 07:26:35 V1M - M 562
412 CORMONT Guillaume 07:26:59 SEM - M 616
413 ROBIC Laurent 07:27:04 V2M - M 170
414 LE FLOCH Jean Pascal 07:28:00 V1M - M 124
415 POLIDORI Charles 07:28:23 V1M - M 56
416 MAHAUX Benoit 07:28:54 V1M - M 1010
417 BERNARD Jean Noel 07:28:58 V2M - M 319
418 KIPPS John 07:29:26 V1M - M 94
419 CHAUBET Didier 07:29:32 V2M - M 496
420 FRATICOLA Daniel 07:30:08 V1M - M 1099
421 LEVERT Pascal 07:30:11 V2M - M 231
422 CARRY Luc 07:30:19 V2M - M 971
423 ALIBERT Sebastie 07:30:25 SEM - M 624
424 DEBOVE David 07:30:35 V1M - M 622
425 THERME Serge 07:32:23 V2M - M 1042
426 ABRARD Didier 07:32:51 V2M - M 572
427 GIRARD Anne Catherine 07:34:38 V1F - F 500
428 ABRARD Brigitte 07:34:38 V2F - F 573
429 BERDAGUE Thierry 07:36:09 V1M - M 545
430 MIRO Vincent 07:36:09 SEM - M 509
431 SOUCI Karim 07:36:09 SEM - M 652
432 RAVAGNI Lionel 07:36:25 V1M - M 201
433 SOURIAU Regine 07:39:02 V3F - F 585
434 GEORGES Philippe 07:39:09 V1M - M 251
435 PIROIT Christelle 07:40:54 SEF - F 1060
436 SAM Yacine 07:42:15 SEM - M 569
437 LEPINAY Max 07:43:44 V1M - M 457
438 DIDELLE Stephane 07:44:23 V1M - M 633
439 DEBONNAIRE Christian 07:45:57 V2M - M 168
440 PUPIER Etienne 07:46:45 V3M - M 263
441 RAULT Thierry 07:47:07 V1M - M 239
442 CASTELLS Ludovic 07:47:10 SEM - M 85
443 GUICHARD Stephane 07:47:12 SEM - M 593
444 RABBE Rene 07:49:19 V1M - M 137
445 CHAZEL Benoit 07:49:27 V1M - M 831
446 CHAZEL Valerie 07:50:00 V1F - F 832
447 ARLERI Carol 07:50:06 V3M - M 79
448 CHARLET Eric 07:50:24 V3M - M 661
449 PERROT Gregory 07:51:02 SEM - M 607
450 CARNAZZA Marc 07:51:39 V1M - M 754
451 BAPTISTA Mario 07:51:39 V1M - M 755
452 MICOUD J Jacques 07:51:58 V1M - M 374
453 BRONNER Ane 07:52:16 SEF - F 454
454 TISSOT David 07:52:20 SEM - M 456
455 MAACHE J Louis 07:52:24 V2M - M 462
456 INIGUEZ Stephane 07:52:53 SEM - M 327
457 PRADAL Frederic 07:53:34 V1M - M 277
458 TRAPAND Philippe 07:55:04 V1M - M 936
459 GRENOT Frederic 07:55:40 SEM - M 362
460 LEGENTIL Briuo 07:57:14 V2M - M 627
461 PICOT David 07:57:14 SEM - M 360
462 LES ENFANT Mickael 07:57:38 SEM - M 364
463 LES ENFANT Yohann 07:57:38 SEM - M 526
464 ARBIB Nicolas 07:57:54 V1M - M 446
465 CHEVALLEY David 07:58:14 SEM - M 751
466 SALAUN Frederic 07:58:14 SEM - M 219
467 JOB Denis 07:58:14 V1M - M 511
468 RATAJSKI Dominique 07:58:14 V2M - M 268
469 CEVAeR Roland 07:58:44 V2M - M 477
470 NOUALHAGUET J Charles 07:59:48 V1M - M 126
471 VERZOTTI Didier 08:00:05 V1M - M 704
472 DA VELA Nicolas 08:00:58 SEM - M 293
473 ALIAGA Remy 08:02:17 SEM - M 1115
474 BENDER Emmanuel 08:02:17 V1M - M 411
475 ZACHARKO Patrick 08:03:34 V1M - M 1068
476 SANGLERAT J Michel 08:04:01 V2M - M 467
477 HOESCHELE Jochen 08:04:07 V1M - M 702
478 BENNING Nicole 08:04:13 V1F - F 703
479 BENDER Marie Laetitia 08:05:31 V1F - F 412
480 EGEA Josiane 08:06:07 V2F - F 676
481 ESTEVENIN Michel 08:06:07 V2M - M 677
482 LEGENDRE Theophile 08:07:26 SEM - M 687
483 BRUN J Michel 08:07:31 V2M - M 567
484 MERCIER Martine 08:07:52 V3F - F 907
485 PAVIE Wilfrid 08:09:03 V1M - M 1108
486 GAUDICHEAU Patrick 08:12:24 V2M - M 686
487 HERVE Jerome 08:12:33 V1M - M 406
488 DELIEU Christophe 08:13:20 V1M - M 861
489 ASQUET NOUALHAGU Christine 08:13:25 V1F - F 144
490 BREVET Gilles 08:13:49 V2M - M 847
491 GENIN/VIEU Sandrine 08:15:23 V1F - F 292
492 BOIZET Bruno 08:15:34 V1M - M 631
493 CAZALENS Thierry 08:19:52 V2M - M 323
494 LARDIERE Linda 08:22:48 V1F - F 548
495 GLORIAN Thierry 08:23:05 V1M - M 583
496 LADIRE Valerie 08:24:48 V1F - F 148
497 LAUDEBAT Gilles 08:26:04 V2M - M 165
498 DEBAR Isabelle 08:26:40 V1F - F 260
499 DEBAR Laurent 08:26:45 V1M - M 226
500 ZAPATA Alfred 08:28:06 V2M - M 78
501 DETEE Gilles 08:30:11 V2M - M 750
502 RANNOU Sebastie 08:30:24 V1M - M 843
503 VESQUE Frederik 08:34:25 SEM - M 898
504 HENRY Serge 08:35:28 V2M - M 549
505 VENEL Elodie 08:37:51 SEF - F 1200
506 FISCHER LEONARD Coralie 08:37:51 SEF - F 761
507 LAGUITTON Arnaud 08:44:06 V1M - M 311
508 CARIOU Marie Annick 08:49:56 V2F - F 129
509 RECOUVROT Thierry 08:53:26 V2M - M 270
510 GABARRO Gilles 08:53:57 V2M - M 223
511 GENESTIER florian 09:02:10 SEM - M 1181
512 GENESTIER Michel 09:02:19 V2M - M 996


ReferencementCe site est listé dans la catégorie Sport : Sports extrêmes Dictionnaire
| Accueil | La Réunion  Vue du ciel | Météo | Cyclones | Volcan | Cirques de Mafate , Cilaos , Salazie | Photos Randonnées | Randonnées Réunion: Randos Espiègle , Courses montagne | Diagonale des Fous |  Marathon des Sables | Voyages Les stats du site | Fonds écran | Plan du site | Blog de runraid | Galerie photos Sport Réunion |